TimeEDT,TemperatureF,Dew PointF,Humidity,Sea Level PressureIn,VisibilityMPH,Wind Direction,Wind SpeedMPH,Gust SpeedMPH,PrecipitationIn,Events,Conditions,WindDirDegrees,DateUTC
1:51 AM,39.9,39.0,97,30.18,9.0,Calm,Calm,-,N/A,,Scattered Clouds,0,2014-05-31 05:51:00
2:51 AM,37.0,35.1,93,30.18,10.0,Calm,Calm,-,N/A,,Clear,0,2014-05-31 06:51:00
3:51 AM,34.0,33.1,96,30.19,10.0,Calm,Calm,-,N/A,,Clear,0,2014-05-31 07:51:00
5:51 AM,33.1,32.0,96,30.23,10.0,NNE,4.6,-,N/A,,Clear,30,2014-05-31 09:51:00
6:51 AM,43.0,41.0,93,30.24,10.0,Calm,Calm,-,N/A,,Clear,0,2014-05-31 10:51:00
7:51 AM,51.1,44.1,77,30.25,10.0,East,6.9,-,N/A,,Clear,90,2014-05-31 11:51:00
8:51 AM,55.0,44.1,67,30.27,10.0,ENE,6.9,-,N/A,,Mostly Cloudy,60,2014-05-31 12:51:00
9:02 AM,54.0,43.0,66,30.25,10.0,North,8.1,-,N/A,,Overcast,360,2014-05-31 13:02:00
9:21 AM,54.0,41.0,62,30.25,10.0,North,9.2,-,N/A,,Mostly Cloudy,360,2014-05-31 13:21:00
9:51 AM,55.9,42.1,60,30.27,10.0,NE,10.4,-,N/A,,Clear,40,2014-05-31 13:51:00
11:51 AM,60.1,39.9,47,30.29,10.0,NNE,10.4,19.6,N/A,,Scattered Clouds,30,2014-05-31 15:51:00
12:51 PM,60.1,41.0,49,30.28,10.0,ENE,11.5,18.4,N/A,,Mostly Cloudy,60,2014-05-31 16:51:00
1:51 PM,61.0,42.1,50,30.28,10.0,East,10.4,-,N/A,,Overcast,80,2014-05-31 17:51:00
2:51 PM,61.0,43.0,52,30.29,10.0,ENE,6.9,-,N/A,,Overcast,60,2014-05-31 18:51:00
3:51 PM,61.0,43.0,52,30.29,10.0,NE,10.4,-,N/A,,Overcast,50,2014-05-31 19:51:00
4:51 PM,61.0,43.0,52,30.30,10.0,NE,9.2,-,N/A,,Overcast,50,2014-05-31 20:51:00
6:51 PM,61.0,44.1,54,30.30,10.0,NNE,8.1,-,N/A,,Clear,30,2014-05-31 22:51:00
7:51 PM,59.0,44.1,58,30.29,10.0,ENE,5.8,-,N/A,,Clear,70,2014-05-31 23:51:00
8:51 PM,50.0,45.0,83,30.31,10.0,Calm,Calm,-,N/A,,Clear,0,2014-06-01 00:51:00
9:51 PM,45.0,43.0,93,30.33,10.0,NNW,3.5,-,N/A,,Clear,340,2014-06-01 01:51:00
10:51 PM,42.1,41.0,96,30.33,9.0,Calm,Calm,-,N/A,,Clear,0,2014-06-01 02:51:00
11:51 PM,39.9,39.0,97,30.33,8.0,Calm,Calm,-,N/A,,Clear,0,2014-06-01 03:51:00